This is the latest recevied weather packets stored in our database for station/object DG9MHV-10. If no packets are shown the sender has not sent any weather packets the latest 10 day(s).
| Time | Temp. | Humidity | Pressure | Rain* | Wind** | Luminosity | Snow |
|---|---|---|---|---|---|---|---|
| 1777977672 | 26.67° C | 100% | 1007.9 hPa | - | - | - | - |
| 1777976772 | 26.67° C | 100% | 1007.9 hPa | - | - | - | - |
| 1777975872 | 25.56° C | 100% | 1008.1 hPa | - | - | - | - |
| 1777974972 | 25° C | 100% | 1008.3 hPa | - | - | - | - |
| 1777974072 | 26.67° C | 100% | 1008.4 hPa | - | - | - | - |
| 1777973172 | 27.78° C | 100% | 1008.5 hPa | - | - | - | - |
| 1777972271 | 27.78° C | 100% | 1008.7 hPa | - | - | - | - |
| 1777971371 | 28.33° C | 100% | 1008.8 hPa | - | - | - | - |
| 1777970471 | 27.78° C | 100% | 1008.9 hPa | - | - | - | - |
| 1777969571 | 26.11° C | 100% | 1008.9 hPa | - | - | - | - |
| 1777968671 | 27.22° C | 100% | 1009.1 hPa | - | - | - | - |
| 1777967771 | 28.89° C | 100% | 1009.1 hPa | - | - | - | - |
| 1777966871 | 28.89° C | 100% | 1009.3 hPa | - | - | - | - |
| 1777965971 | 28.89° C | 100% | 1009.4 hPa | - | - | - | - |
| 1777965071 | 28.89° C | 100% | 1009.6 hPa | - | - | - | - |
| 1777964170 | 26.67° C | 100% | 1009.6 hPa | - | - | - | - |
| 1777963270 | 28.33° C | 100% | 1009.6 hPa | - | - | - | - |
| 1777962370 | 26.67° C | 100% | 1009.2 hPa | - | - | - | - |
| 1777961470 | 24.44° C | 100% | 1009 hPa | - | - | - | - |
| 1777960570 | 23.89° C | 100% | 1008.6 hPa | - | - | - | - |
| 1777959670 | 23.89° C | 100% | 1008.3 hPa | - | - | - | - |
| 1777958770 | 22.78° C | 100% | 1007.9 hPa | - | - | - | - |
| 1777957870 | 21.11° C | 100% | 1007.2 hPa | - | - | - | - |
| 1777956969 | 18.33° C | 100% | 1005.8 hPa | - | - | - | - |
| 1777956069 | 15° C | 100% | 1008.4 hPa | - | - | - | - |
* Rain since midnight (hover to see other rain measurements)
** Current wind speed in m/s (hover to see current wind gust speed)